Location: *
(52.2090°N, 4.1550°W)
Time: 04:55:45
(UTC+00:00)

Terra - Pass Details

Date: 19 July 2019
Orbit: 702 x 703 km, 98.2° (Epoch: 20 August)

Event Time Altitude Azimuth Distance (km) Brightness Sun altitude
Exits shadow 23:49:53 - 234° (SW) 2,618 4.5 -16.7°
Reaches altitude 10° 23:52:10 10° 256° (WSW) 2,175 4.3 -16.7°
Maximum altitude 23:53:44 11° 276° (W) 2,077 4.4 -16.8°
Drops below altitude 10° 23:55:19 10° 295° (WNW) 2,180 4.8 -16.8°
Sets 23:59:19 0° 329° (NNW) 3,106 6.4 -16.9°
